Location: Kitt Peak
(31.9633°N, 111.6000°W)
Time: 13:43:57
(UTC-07:00)

Amateur Radio Satellites - All Passes

Search period start: 04 July 2015 13:13
Search period end: 05 July 2015 13:13
Location: Kitt Peak, 31.9633°N, 111.6000°W

Satellite Date Start Highest point End Downlink Frequencies (MHz)
Time Altitude Azimuth
VERMONT LUNAR 04 Jul 13:13:58 13:16:55 37° 213° (SSW) 13:19:53 437.305
BEESAT 04 Jul 13:29:19 13:33:19 27° 96° (E) 13:37:24 436.000
PHONESAT 2.4 04 Jul 13:30:34 13:33:55 46° 22° (NNE) 13:37:18 2401.200-2431.200
SWISSCUBE 04 Jul 13:44:28 13:49:03 44° 99° (E) 13:53:38 437.505
RS-15 04 Jul 13:47:12 13:56:16 24° 255° (WSW) 14:04:45 29.354- 29.394
ITUPSAT 1 04 Jul 13:49:46 13:54:22 45° 99° (E) 13:58:58 437.325
AO-7 04 Jul 13:50:57 13:55:11 16° 58° (ENE) 13:59:56 29.400- 29.500
Oscar 19 04 Jul 13:59:55 14:04:28 31° 263° (W) 14:08:56 437.125/150
SPROUT 04 Jul 14:01:53 14:02:47 10° 291° (WNW) 14:03:25 437.525
Gurwin Techsat 1B 04 Jul 14:04:30 14:09:47 75° 77° (ENE) 14:15:07 435.225
ITAMSAT 1 04 Jul 14:10:34 14:15:47 84° 79° (E) 14:21:03 435.822/435.867
YUBILEINY 04 Jul 14:20:04 14:28:47 67° 81° (E) 14:37:32 435.215
JAS-2 04 Jul 14:22:15 14:26:14 24° 70° (ENE) 14:30:28 435.910
ISS 04 Jul 14:25:07 14:27:44 22° 37° (NE) 14:30:23 145.825
Cosmos 2491 04 Jul 14:34:52 14:43:13 51° 91° (E) 14:51:41 435.465 / 435.565
HORYU 2 04 Jul 14:38:37 14:41:33 18° 70° (ENE) 14:44:38 437.375
KKS-1 04 Jul 14:43:20 14:47:01 26° 96° (E) 14:50:47 437.445
PCSat 04 Jul 14:57:54 15:03:11 60° 112° (ESE) 15:08:32 145.827
BEESAT 04 Jul 15:07:10 15:11:04 25° 289° (WNW) 15:14:51 436.000
PHONESAT 2.4 04 Jul 15:08:50 15:11:51 27° 215° (SW) 15:14:51 2401.200-2431.200
SWISSCUBE 04 Jul 15:23:40 15:26:35 16° 291° (WNW) 15:29:15 437.505
ITUPSAT 1 04 Jul 15:29:02 15:31:55 15° 292° (WNW) 15:34:34 437.325
STARS 04 Jul 15:34:43 15:39:03 65° 101° (E) 15:43:24 437.465
SO-50 04 Jul 15:36:45 15:40:49 32° 112° (ESE) 15:45:06 436.795
AO-7 04 Jul 15:38:39 15:47:00 86° 72° (ENE) 15:55:25 29.400- 29.500
JUGNU 04 Jul 15:40:12 15:44:16 19° 169° (SSE) 15:48:24 437.505
AIST 1 04 Jul 15:40:33 15:44:52 57° 278° (W) 15:49:14
ISS 04 Jul 16:01:24 16:04:05 24° 231° (SW) 16:06:43 145.825
BEESAT 3 04 Jul 16:04:49 16:08:44 47° 59° (ENE) 16:12:35 437.485
JAS-2 04 Jul 16:06:48 16:11:20 29° 264° (W) 16:15:49 435.910
Cosmos 2504 04 Jul 16:14:02 16:20:58 38° 78° (ENE) 16:28:30 435.465 / 435.565
HORYU 2 04 Jul 16:14:03 16:17:59 31° 263° (W) 16:21:53 437.375
BEESAT 2 04 Jul 16:17:08 16:21:07 51° 60° (ENE) 16:25:00 435.950
YUBILEINY 04 Jul 16:18:46 16:24:58 21° 275° (W) 16:30:39 435.215
KKS-1 04 Jul 16:20:08 16:23:32 21° 289° (WNW) 16:26:49 437.445
Cosmos 2491 04 Jul 16:33:00 16:40:29 29° 288° (WNW) 16:47:40 435.465 / 435.565
SRMSAT 04 Jul 16:33:31 16:36:27 14° 165° (SSE) 16:39:29 437.500
MOZHAYETS 4 04 Jul 16:37:16 16:41:47 49° 99° (E) 16:46:18
PCSat 04 Jul 16:43:39 16:47:05 16° 309° (NW) 16:50:20 145.827
CUTE-I 04 Jul 16:49:10 16:52:02 15° 67° (ENE) 16:55:10 437.470
SO-50 04 Jul 17:17:33 17:21:25 24° 308° (NW) 17:25:16 436.795
Cubesat XI-IV 04 Jul 17:21:23 17:26:04 33° 71° (ENE) 17:30:51 437.490
O/OREOS (USA 219) 04 Jul 17:24:53 17:29:25 83° 71° (ENE) 17:33:58 437.305
JUGNU 04 Jul 17:27:56 17:32:45 25° 178° (S) 17:37:34 437.505
AO-7 04 Jul 17:36:08 17:40:50 15° 269° (W) 17:44:52 29.400- 29.500
AIST 2 04 Jul 17:36:34 17:40:46 85° 243° (WSW) 17:44:52 435.215
Cosmos 2504 04 Jul 18:06:18 18:13:06 34° 271° (W) 18:20:08 435.465 / 435.565
MOZHAYETS 4 04 Jul 18:16:23 18:18:37 13° 291° (WNW) 18:20:37
SRMSAT 04 Jul 18:20:29 18:25:03 23° 173° (S) 18:29:38 437.500
CUTE-I 04 Jul 18:26:26 18:31:41 56° 260° (W) 18:36:58 437.470
CUBESAT XI-V 04 Jul 18:41:23 18:46:05 89° 106° (ESE) 18:50:44 437.345
PRISM 04 Jul 18:49:50 18:53:23 27° 97° (E) 18:56:58 437.425
DANDE 04 Jul 18:53:31 18:55:57 32° 78° (ENE) 18:58:20 436.750
GONETS M04 04 Jul 18:57:24 19:03:57 24° 71° (ENE) 19:10:50
Cubesat XI-IV 04 Jul 19:01:47 19:06:12 25° 265° (W) 19:10:30 437.490
JUGNU 04 Jul 19:16:44 19:21:15 22° 188° (S) 19:25:43 437.505
GOMX 1 04 Jul 19:18:14 19:22:40 30° 73° (ENE) 19:26:58 467.674
CUSAT 1 04 Jul 19:30:33 19:32:31 19° 265° (W) 19:34:30 437.405
HO-68 04 Jul 19:35:11 19:41:38 39° 69° (ENE) 19:48:12 435.675
SEEDS 04 Jul 19:35:27 19:37:47 15° 70° (ENE) 19:40:17 437.485
STRAND 1 04 Jul 19:42:08 19:47:16 70° 285° (WNW) 19:52:21 437.568
BRITE-PL 04 Jul 19:42:59 19:48:34 88° 255° (WSW) 19:53:52 437.365/2234.400
AAUSAT CUBESAT 2 04 Jul 19:46:21 19:48:11 13° 70° (ENE) 19:50:15 437.432
M-CUBED/EXP-1 PRIME 04 Jul 19:57:41 19:58:25 10° 97° (E) 19:59:29 437.505
DOVE 4 04 Jul 20:00:37 20:05:24 50° 76° (ENE) 20:09:57 437.250
SRMSAT 04 Jul 20:08:58 20:13:42 25° 183° (S) 20:18:25 437.500
COMPASS 1 04 Jul 20:10:46 20:14:25 32° 74° (ENE) 20:18:09 437.405
CUTE 1.7 + AOD 2 04 Jul 20:21:16 20:25:27 74° 78° (ENE) 20:29:40 437.475
CANX-2 04 Jul 20:24:40 20:28:52 88° 257° (WSW) 20:33:06 2200.000
PRISM 04 Jul 20:25:40 20:28:39 19° 290° (WNW) 20:31:29 437.425
FUNcube-1 04 Jul 20:34:12 20:35:21 11° 70° (ENE) 20:36:46 145.935
CINEMA 3 04 Jul 20:44:13 20:48:46 68° 77° (ENE) 20:53:07 145.822/145.860
UWE-3 04 Jul 20:45:26 20:48:40 22° 73° (ENE) 20:51:59 435.000/436.395/437.385
Cosmos 2499 04 Jul 20:50:23 20:56:54 28° 74° (ENE) 21:04:01 435.465 / 435.565
GONETS M04 04 Jul 20:52:53 21:01:23 59° 268° (W) 21:09:47
AUBIESAT-1 04 Jul 20:54:38 20:58:50 45° 104° (ESE) 21:03:16 437.475
GOMX 1 04 Jul 20:56:25 21:00:45 25° 264° (W) 21:04:47 467.674
JUGNU 04 Jul 21:07:13 21:09:41 12° 197° (SSW) 21:12:01 437.505
SEEDS 04 Jul 21:09:32 21:13:19 33° 263° (W) 21:17:05 437.485
DX 1 04 Jul 21:17:59 21:20:16 15° 69° (ENE) 21:22:47 434.975-435.025
AAUSAT CUBESAT 2 04 Jul 21:19:38 21:23:29 37° 262° (W) 21:27:20 437.432
HO-68 04 Jul 21:23:05 21:29:25 32° 263° (W) 21:35:36 435.675
M-CUBED/EXP-1 PRIME 04 Jul 21:29:11 21:33:27 58° 288° (WNW) 21:37:58 437.505
CUBEBUG 2 04 Jul 21:30:23 21:34:44 75° 259° (WSW) 21:38:58 437.445
ZACube-1 04 Jul 21:31:08 21:35:19 62° 77° (ENE) 21:39:28 437.345
DELFI C3 04 Jul 21:32:26 21:36:25 81° 79° (E) 21:40:27 145.870
UKube-1 04 Jul 21:37:15 21:40:33 22° 71° (ENE) 21:43:58 .
50 SAT 04 Jul 21:38:16 21:39:38 12° 70° (ENE) 21:41:11 437.505
Oscar 11 04 Jul 21:39:02 21:43:15 55° 260° (W) 21:47:28 145.826/435.025
DOVE 4 04 Jul 21:41:01 21:43:23 13° 268° (W) 21:45:24 437.250
HUMSAT D 04 Jul 21:47:15 21:51:01 36° 74° (ENE) 21:54:48 437.325/437.525
COMPASS 1 04 Jul 21:47:43 21:50:12 15° 268° (W) 21:52:30 437.405
AISAT 04 Jul 21:55:56 21:59:20 22° 71° (ENE) 22:02:49 437.250
SRMSAT 04 Jul 21:58:29 22:02:18 17° 193° (SSW) 22:06:03 437.500
ANTELSAT 04 Jul 22:00:29 22:03:07 16° 93° (E) 22:06:00 437.575/2403.000
FUNcube-1 04 Jul 22:07:17 22:11:21 45° 261° (W) 22:15:21 145.935
TIGRISAT 04 Jul 22:12:06 22:15:24 21° 95° (E) 22:18:52 435.000
CUBEBUG 1 04 Jul 22:13:08 22:15:57 17° 70° (ENE) 22:18:57 437.445
UWE-3 04 Jul 22:21:42 22:25:09 23° 265° (W) 22:28:26 435.000/436.395/437.385
POLYITAN 1 04 Jul 22:26:09 22:26:59 11° 91° (E) 22:28:07 437.675
ESTCUBE 1 04 Jul 22:28:47 22:32:47 32° 73° (ENE) 22:36:51 437.505/2401.250
AUBIESAT-1 04 Jul 22:30:50 22:33:17 14° 294° (WNW) 22:35:36 437.475
Cosmos 2499 04 Jul 22:42:37 22:50:18 51° 268° (W) 22:58:26 435.465 / 435.565
VELOX 1 04 Jul 22:43:54 22:48:21 80° 77° (ENE) 22:52:50 145.980
UNISAT 6 04 Jul 22:51:07 22:55:31 67° 101° (E) 23:00:00 437.425
DX 1 04 Jul 22:52:06 22:56:13 39° 261° (W) 23:00:20 434.975-435.025
QB50P2 04 Jul 22:53:29 22:56:57 25° 96° (E) 23:00:30 145.880/145.840
POPSAT HIP 1 04 Jul 22:54:08 22:57:34 25° 96° (E) 23:01:04 437.405
50 SAT 04 Jul 23:10:26 23:13:58 34° 262° (W) 23:17:28 437.505
SPROUT 04 Jul 23:12:58 23:16:15 22° 72° (ENE) 23:19:37 437.525
UKube-1 04 Jul 23:12:59 23:16:35 24° 264° (W) 23:20:05 .
HUMSAT D 04 Jul 23:25:02 23:26:56 13° 268° (W) 23:28:37 437.325/437.525
AISAT 04 Jul 23:32:00 23:35:47 26° 264° (W) 23:39:29 437.250
QB50P1 04 Jul 23:32:29 23:36:41 80° 100° (E) 23:40:54 145.935-145.965
ANTELSAT 04 Jul 23:35:59 23:40:01 35° 286° (WNW) 23:44:05 437.575/2403.000
RS-15 04 Jul 23:45:22 23:49:29 14° 102° (ESE) 23:54:43 29.354- 29.394
NANOSAT C BR1 04 Jul 23:46:33 23:50:44 68° 283° (WNW) 23:54:53 145.865
CUBEBUG 1 04 Jul 23:48:03 23:52:05 33° 262° (W) 23:56:05 437.445
TIGRISAT 04 Jul 23:48:25 23:52:07 26° 287° (WNW) 23:55:49 435.000
PCSat 04 Jul 23:51:47 23:55:23 18° 52° (NE) 23:59:09 145.827
TISAT 1 04 Jul 23:51:59 23:55:58 41° 74° (ENE) 23:59:59 437.305
DUCHIFAT 1 04 Jul 23:53:23 23:57:29 57° 284° (WNW) 00:01:34 145.980
POLYITAN 1 04 Jul 23:59:09 00:03:11 45° 285° (WNW) 00:07:11 437.675
ESTCUBE 1 05 Jul 00:06:32 00:09:43 18° 266° (W) 00:12:46 437.505/2401.250
BUGSAT 1 05 Jul 00:08:19 00:12:18 57° 284° (WNW) 00:16:13 437.445
SO-50 05 Jul 00:15:29 00:16:08 10° 44° (NE) 00:17:05 436.795
QB50P2 05 Jul 00:29:35 00:32:43 20° 289° (WNW) 00:35:43 145.880/145.840
POPSAT HIP 1 05 Jul 00:30:10 00:33:18 20° 289° (WNW) 00:36:20 437.405
BEESAT 05 Jul 00:31:52 00:35:03 19° 69° (ENE) 00:38:24 436.000
Oscar 19 05 Jul 00:39:08 00:40:57 12° 91° (E) 00:43:09 437.125/150
SWISSCUBE 05 Jul 00:46:33 00:50:38 30° 72° (ENE) 00:54:49 437.505
SPROUT 05 Jul 00:48:41 00:52:13 24° 264° (W) 00:55:42 437.525
ITUPSAT 1 05 Jul 00:52:05 00:56:12 30° 72° (ENE) 01:00:25 437.325
Cosmos 2491 05 Jul 00:52:58 00:58:26 19° 67° (ENE) 01:04:24 435.465 / 435.565
YUBILEINY 05 Jul 01:24:14 01:27:16 13° 82° (E) 01:31:06 435.215
TISAT 1 05 Jul 01:30:11 01:31:58 12° 268° (W) 01:33:30 437.305
PCSat 05 Jul 01:33:54 01:39:10 52° 249° (WSW) 01:44:23 145.827
KKS-1 05 Jul 01:38:12 01:40:27 14° 69° (ENE) 01:42:54 437.445
RS-15 05 Jul 01:49:41 02:00:32 82° 116° (ESE) 02:11:41 29.354- 29.394
SO-50 05 Jul 01:52:33 01:57:31 88° 68° (ENE) 02:02:19 436.795
AIST 1 05 Jul 01:53:34 01:56:47 21° 76° (ENE) 02:00:06
BEESAT 05 Jul 02:08:15 02:12:39 36° 262° (W) 02:17:02 436.000
Oscar 19 05 Jul 02:15:43 02:20:46 59° 285° (WNW) 02:25:47 437.125/150
SWISSCUBE 05 Jul 02:24:45 02:28:30 22° 265° (W) 02:32:08 437.505
Gurwin Techsat 1B 05 Jul 02:25:52 02:30:56 45° 99° (E) 02:36:01 435.225
STARS 05 Jul 02:27:05 02:30:55 30° 72° (ENE) 02:34:47 437.465
ITAMSAT 1 05 Jul 02:28:37 02:33:35 45° 99° (E) 02:38:33 435.822/435.867
ITUPSAT 1 05 Jul 02:30:24 02:34:07 22° 265° (W) 02:37:43 437.325
Cosmos 2491 05 Jul 02:47:35 02:56:18 74° 266° (W) 03:04:56 435.465 / 435.565
KKS-1 05 Jul 03:12:32 03:16:46 41° 261° (W) 03:20:59 437.445
YUBILEINY 05 Jul 03:14:26 03:23:07 89° 97° (E) 03:31:52 435.215
JAS-2 05 Jul 03:17:57 03:24:28 44° 99° (E) 03:31:40 435.910
AIST 1 05 Jul 03:30:55 03:34:24 23° 270° (W) 03:37:44
MOZHAYETS 4 05 Jul 03:34:52 03:38:37 26° 72° (ENE) 03:42:29
AO-7 05 Jul 03:46:17 03:53:56 40° 99° (E) 04:01:39 29.400- 29.500
STARS 05 Jul 04:04:20 04:07:25 18° 266° (W) 04:10:20 437.465
RS-15 05 Jul 04:05:34 04:14:25 26° 319° (NW) 04:23:09 29.354- 29.394
Gurwin Techsat 1B 05 Jul 04:06:57 04:10:37 18° 292° (WNW) 04:14:03 435.225
ITAMSAT 1 05 Jul 04:09:16 04:12:46 18° 292° (WNW) 04:16:04 435.822/435.867
HORYU 2 05 Jul 04:09:22 04:13:51 72° 102° (ESE) 04:18:19 437.375
Cosmos 2504 05 Jul 04:40:19 04:46:01 29° 89° (E) 04:51:50 435.465 / 435.565
JAS-2 05 Jul 05:03:29 05:09:22 31° 289° (WNW) 05:15:34 435.910
MOZHAYETS 4 05 Jul 05:12:12 05:15:49 22° 265° (W) 05:19:21
YUBILEINY 05 Jul 05:16:36 05:21:19 14° 295° (WNW) 05:25:21 435.215
PRISM 05 Jul 05:37:29 05:38:35 11° 68° (ENE) 05:39:57 437.425
AO-7 05 Jul 05:39:04 05:46:41 39° 294° (WNW) 05:54:07 29.400- 29.500
CUBESAT XI-V 05 Jul 05:39:42 05:44:13 48° 75° (ENE) 05:48:46 437.345
Cubesat XI-IV 05 Jul 05:44:15 05:47:55 19° 93° (E) 05:51:47 437.490
VERMONT LUNAR 05 Jul 05:45:30 05:48:22 36° 147° (SSE) 05:51:16 437.305
BEESAT 3 05 Jul 05:53:02 05:56:30 28° 113° (ESE) 06:00:04 437.485
O/OREOS (USA 219) 05 Jul 05:54:48 05:57:33 17° 102° (ESE) 06:00:30 437.305
BEESAT 2 05 Jul 06:06:11 06:09:47 31° 113° (ESE) 06:13:29 435.950
DANDE 05 Jul 06:16:59 06:19:48 13° 92° (E) 06:22:55 436.750
Cosmos 2504 05 Jul 06:31:43 06:38:04 36° 283° (WNW) 06:44:16 435.465 / 435.565
CUSAT 1 05 Jul 06:47:11 06:53:12 34° 96° (E) 06:58:06 437.405
CUTE-I 05 Jul 06:48:25 06:53:49 89° 98° (E) 06:59:10 437.470
STRAND 1 05 Jul 06:52:56 06:58:05 81° 257° (WSW) 07:03:16 437.568
ISS 05 Jul 06:59:59 07:03:12 81° 313° (NW) 07:06:28 145.825
PRISM 05 Jul 07:09:38 07:13:39 46° 260° (W) 07:17:41 437.425
CUBESAT XI-V 05 Jul 07:19:46 07:21:58 13° 269° (W) 07:23:53 437.345
VERMONT LUNAR 05 Jul 07:22:27 07:25:18 32° 341° (NNW) 07:28:10 437.305
Cubesat XI-IV 05 Jul 07:23:12 07:28:13 41° 288° (WNW) 07:33:11 437.490
AIST 2 05 Jul 07:29:30 07:33:42 68° 116° (ESE) 07:37:57 435.215
BEESAT 3 05 Jul 07:31:28 07:34:29 19° 307° (NW) 07:37:26 437.485
O/OREOS (USA 219) 05 Jul 07:32:43 07:36:45 32° 294° (WNW) 07:40:45 437.305
AUBIESAT-1 05 Jul 07:39:30 07:41:56 20° 67° (ENE) 07:44:30 437.475
BEESAT 2 05 Jul 07:45:01 07:47:56 18° 308° (NW) 07:50:46 435.950
PHONESAT 2.4 05 Jul 07:51:10 07:54:35 74° 150° (SSE) 07:58:01 2401.200-2431.200
GONETS M04 05 Jul 07:52:01 07:59:27 33° 88° (E) 08:07:05
BRITE-PL 05 Jul 07:53:49 07:57:45 38° 98° (E) 08:01:37 437.365/2234.400
DANDE 05 Jul 07:55:17 08:02:59 81° 278° (W) 08:08:56 436.750
DOVE 4 05 Jul 08:05:45 08:08:22 17° 94° (E) 08:11:09 437.250
CUTE 1.7 + AOD 2 05 Jul 08:12:14 08:15:11 19° 94° (E) 08:18:16 437.475
M-CUBED/EXP-1 PRIME 05 Jul 08:13:45 08:17:01 83° 73° (ENE) 08:20:23 437.505
CANX-2 05 Jul 08:15:23 08:18:45 23° 95° (E) 08:22:14 2200.000
CUSAT 1 05 Jul 08:30:03 08:35:44 28° 281° (W) 08:40:13 437.405
CINEMA 3 05 Jul 08:44:31 08:47:41 21° 95° (E) 08:51:01 145.822/145.860
RS-15 05 Jul 08:46:08 08:52:43 17° 30° (NNE) 09:00:03 29.354- 29.394
HO-68 05 Jul 08:54:56 09:02:02 65° 102° (ESE) 09:09:08 435.675
SEEDS 05 Jul 08:58:06 09:02:18 55° 100° (E) 09:06:29 437.485
VERMONT LUNAR 05 Jul 09:00:38 09:02:46 17° 357° (N) 09:04:55 437.305
GOMX 1 05 Jul 09:02:41 09:06:43 49° 285° (WNW) 09:10:43 467.674
AAUSAT CUBESAT 2 05 Jul 09:07:01 09:11:04 45° 99° (E) 09:15:07 437.432
TIGRISAT 05 Jul 09:09:24 09:09:41 10° 69° (ENE) 09:10:15 435.000
AIST 2 05 Jul 09:11:50 09:12:47 10° 313° (NW) 09:13:30 435.215
AUBIESAT-1 05 Jul 09:14:46 09:16:43 14° 262° (W) 09:18:35 437.475
DELFI C3 05 Jul 09:17:33 09:19:58 16° 93° (E) 09:22:34 145.870
Cosmos 2499 05 Jul 09:23:20 09:28:12 21° 87° (E) 09:33:23 435.465 / 435.565
ZACube-1 05 Jul 09:25:24 09:28:09 17° 94° (E) 09:31:06 437.345
CUBEBUG 2 05 Jul 09:26:20 09:30:05 30° 97° (E) 09:33:57 437.445
PHONESAT 2.4 05 Jul 09:29:51 09:32:49 26° 346° (NNW) 09:35:48 2401.200-2431.200
Oscar 11 05 Jul 09:31:15 09:35:16 37° 98° (E) 09:39:19 145.826/435.025
COMPASS 1 05 Jul 09:33:50 09:38:02 65° 283° (WNW) 09:42:13 437.405
BRITE-PL 05 Jul 09:34:06 09:35:59 12° 291° (WNW) 09:37:37 437.365/2234.400
DOVE 4 05 Jul 09:42:39 09:46:13 27° 287° (WNW) 09:49:44 437.250
QB50P2 05 Jul 09:44:03 09:45:08 11° 69° (ENE) 09:46:28 145.880/145.840
POPSAT HIP 1 05 Jul 09:44:43 09:45:37 11° 69° (ENE) 09:46:46 437.405
UNISAT 6 05 Jul 09:45:52 09:49:38 31° 73° (ENE) 09:53:26 437.425
CUTE 1.7 + AOD 2 05 Jul 09:47:26 09:51:07 28° 287° (WNW) 09:54:45 437.475
GONETS M04 05 Jul 09:47:48 09:56:07 44° 283° (WNW) 10:04:17
CANX-2 05 Jul 09:51:11 09:54:36 23° 288° (WNW) 09:57:55 2200.000
FUNcube-1 05 Jul 10:00:02 10:04:07 45° 99° (E) 10:08:17 145.935
UWE-3 05 Jul 10:15:01 10:19:17 83° 282° (WNW) 10:23:38 435.000/436.395/437.385
QB50P1 05 Jul 10:20:37 10:24:20 31° 73° (ENE) 10:28:06 145.935-145.965
CINEMA 3 05 Jul 10:21:28 10:24:51 23° 287° (WNW) 10:28:12 145.822/145.860
ANTELSAT 05 Jul 10:29:50 10:34:08 72° 259° (WSW) 10:38:23 437.575/2403.000
NANOSAT C BR1 05 Jul 10:34:06 10:38:08 44° 75° (ENE) 10:42:11 145.865
VERMONT LUNAR 05 Jul 10:37:43 10:40:20 24° 14° (NNE) 10:42:58 437.305
VELOX 1 05 Jul 10:40:03 10:43:24 22° 95° (E) 10:46:52 145.980
DUCHIFAT 1 05 Jul 10:40:36 10:44:42 53° 75° (ENE) 10:48:50 145.980
TIGRISAT 05 Jul 10:41:51 10:46:04 52° 260° (W) 10:50:14 435.000
HO-68 05 Jul 10:44:11 10:49:15 20° 296° (WNW) 10:54:00 435.675
AAUSAT CUBESAT 2 05 Jul 10:44:46 10:46:18 11° 291° (WNW) 10:47:36 437.432
DX 1 05 Jul 10:45:02 10:49:15 50° 100° (E) 10:53:27 434.975-435.025
POLYITAN 1 05 Jul 10:46:52 10:51:05 69° 77° (ENE) 10:55:18 437.675
50 SAT 05 Jul 10:50:38 10:54:12 34° 98° (E) 10:57:49 437.505
DELFI C3 05 Jul 10:51:33 10:55:07 29° 287° (WNW) 10:58:38 145.870
BUGSAT 1 05 Jul 10:53:09 10:57:13 48° 75° (ENE) 11:01:17 437.445
RS-15 05 Jul 10:56:48 11:08:25 61° 57° (ENE) 11:20:31 29.354- 29.394
ZACube-1 05 Jul 11:00:50 11:04:34 30° 286° (WNW) 11:08:18 437.345
CUBEBUG 2 05 Jul 11:03:45 11:06:36 17° 288° (WNW) 11:09:19 437.445
UKube-1 05 Jul 11:04:20 11:08:40 80° 102° (ESE) 11:12:58 .
Oscar 11 05 Jul 11:08:37 11:11:11 15° 290° (WNW) 11:13:33 145.826/435.025
PHONESAT 2.4 05 Jul 11:08:55 11:11:30 19° 3° (N) 11:14:06 2401.200-2431.200
HUMSAT D 05 Jul 11:11:05 11:15:10 55° 284° (WNW) 11:19:18 437.325/437.525
Cosmos 2499 05 Jul 11:14:06 11:20:56 49° 281° (W) 11:27:46 435.465 / 435.565
QB50P2 05 Jul 11:16:32 11:20:39 48° 260° (W) 11:24:46 145.880/145.840
POPSAT HIP 1 05 Jul 11:16:59 11:21:06 49° 260° (W) 11:25:14 437.405
UNISAT 6 05 Jul 11:23:42 11:26:31 16° 267° (W) 11:29:07 437.425
AISAT 05 Jul 11:26:39 11:31:04 87° 102° (ESE) 11:35:28 437.250
FUNcube-1 05 Jul 11:38:24 11:40:07 12° 290° (WNW) 11:41:37 145.935
CUBEBUG 1 05 Jul 11:41:19 11:45:38 65° 100° (E) 11:49:56 437.445
Oscar 19 05 Jul 11:52:11 11:53:46 12° 66° (ENE) 11:55:42 437.125/150
QB50P1 05 Jul 11:57:30 12:00:17 16° 267° (W) 12:02:53 145.935-145.965
ESTCUBE 1 05 Jul 12:02:30 12:06:58 58° 285° (WNW) 12:11:24 437.505/2401.250
NANOSAT C BR1 05 Jul 12:12:53 12:14:14 11° 269° (W) 12:15:17 145.865
VERMONT LUNAR 05 Jul 12:14:19 12:17:28 75° 210° (SSW) 12:20:38 437.305
VELOX 1 05 Jul 12:16:16 12:19:56 25° 288° (WNW) 12:23:28 145.980
DX 1 05 Jul 12:23:38 12:25:06 11° 292° (WNW) 12:26:19 434.975-435.025
50 SAT 05 Jul 12:26:39 12:28:33 13° 290° (WNW) 12:30:17 437.505
BUGSAT 1 05 Jul 12:32:13 12:32:58 10° 269° (W) 12:33:25 437.445
SPROUT 05 Jul 12:39:12 12:43:29 85° 101° (ESE) 12:47:45 437.525
PHONESAT 2.4 05 Jul 12:46:50 12:50:05 37° 19° (NNE) 12:53:22 2401.200-2431.200
SWISSCUBE 05 Jul 12:54:06 12:55:11 11° 90° (E) 12:56:37 437.505
ITUPSAT 1 05 Jul 12:59:42 13:01:03 11° 91° (E) 13:02:45 437.325
